sat.trackr.live / text

‹ back to catalog

STARLINK-2213

NORAD 47780 · 2021-017BL

PAYLOAD ACTIVE UNKNOWN

§ Identity

Operator
Country
US
Launch date
2021-03-04
Launch site
AFETR
Launch vehicle
Mass (kg)
RCS (m²)

Purposes: comms

External: N2YO · Heavens-Above · Gunter

§ Orbital elements

Epoch: 2026-05-24T21:36:02.752704Z

Period
94.01 min
Inclination
53.1591°
Eccentricity
0.0001330
Mean motion
15.31703163 rev/d
Perigee alt
469.8 km
Apogee alt
471.6 km
Semi-major
6,848.9 km
B*
3.7512e-5
RAAN
209.3753°
Arg perigee
84.8720°
Mean anomaly
275.2433°
Rev number
28,957

§ Raw data

STARLINK-22131 47780U 21017BL  26144.90003186  .00000799  00000+0  37512-4 0  99972 47780  53.1591 209.3753 0001330  84.8720 275.2433 15.31703163289574

JSON: /api/v1/satellites/47780 · /tle

For live sub-satellite position, see the globe view (requires WebGL).

§ Visibility from observer

Set your observer location to see the next 7 days of passes ≥ 10°. The values pass through the URL so the page stays shareable.

No JS? Fill the form by hand. The geolocation button needs JavaScript.